Litchfield, MN

5:54 AM CDT on May 29, 2017 (GMT -0500)
Litchfield Municipal

Weather History for KLJF - June, 2013

Change the Weather History Date:

Tuesday, June 25, 2013

  Actual Average Record
Temperature  
Mean Temperature 75 °F -  
Max Temperature 84 °F 82 °F 101 °F (1988)
Min Temperature 66 °F 59 °F 42 °F (1958)
Cooling Degree Days 10    
Growing Degree Days 25 (Base 50)    
Moisture  
Dew Point 71 °F    
Average Humidity 84    
Maximum Humidity 100    
Minimum Humidity 70    
Precipitation  
Precipitation 0.00 in - - ()
Sea Level Pressure  
Sea Level Pressure 29.77 in    
Wind  
Wind Speed 7 mph (SE)    
Max Wind Speed 14 mph    
Max Gust Speed 18 mph    
Visibility 10 miles    
Events      
Averages and records for this station are not official NWS values.
T = Trace of Precipitation, MM = Missing Value Source: NWS Daily Summary

Daily Weather History Graph

Daily Weather History Graph

Search for Another Location

Airport or City:

Trip Planner

Search our weather history database for the weather conditions in past years. The results will help you decide how hot, cold, wet, or windy it might be!

Date:

Astronomy

Jun. 25, 2013 Rise Set
Actual Time 5:32 AM CDT 9:09 PM CDT
Civil Twilight 4:54 AM CDT 9:46 PM CDT
Nautical Twilight 4:04 AM CDT 10:36 PM CDT
Astronomical Twilight 2:58 AM CDT 11:42 PM CDT
Moon 10:45 PM CDT (6/25) 8:20 AM CDT (6/25)
Length of Visible Light 16h 52m
Length of Day
15h 37m
Waning Gibbous, 92% of the Moon is Illuminated
Jun 25
Waning Gibbous
Jun 29
Last Quarter
Jul 8
New
Jul 15
First Quarter
Jul 22
Full

Hourly Weather History & Observations

Time (CDT) Temp. Heat Index Dew Point Humidity Pressure Visibility Wind Dir Wind Speed Gust Speed Precip Events Conditions
12:13 AM 68.0 °F - 68.0 °F 100% 29.83 in 10.0 mi SE 6.9 mph - N/A   Scattered Clouds
12:33 AM 69.8 °F - 68.0 °F 94% 29.83 in 10.0 mi SE 9.2 mph - N/A   Clear
12:53 AM 69.8 °F - 68.0 °F 94% 29.82 in 10.0 mi SE 9.2 mph - N/A   Clear
1:13 AM 69.8 °F - 66.2 °F 88% 29.82 in 10.0 mi SE 8.1 mph - N/A   Clear
1:33 AM 69.8 °F - 66.2 °F 88% 29.83 in 10.0 mi SSE 5.8 mph - N/A   Clear
1:53 AM 69.8 °F - 66.2 °F 88% 29.83 in 10.0 mi SSE 4.6 mph - N/A   Clear
2:13 AM 68.0 °F - 66.2 °F 94% 29.82 in 10.0 mi SE 6.9 mph - N/A   Clear
2:33 AM 68.0 °F - 66.2 °F 94% 29.83 in 10.0 mi SSE 4.6 mph - N/A   Clear
2:53 AM 66.2 °F - 66.2 °F 100% 29.82 in 10.0 mi SSE 4.6 mph - N/A   Clear
3:13 AM 68.0 °F - 66.2 °F 94% 29.82 in 10.0 mi SE 3.5 mph - N/A   Clear
3:33 AM 68.0 °F - 66.2 °F 94% 29.81 in 10.0 mi SE 4.6 mph - N/A   Clear
3:53 AM 66.2 °F - 64.4 °F 94% 29.80 in 10.0 mi ESE 5.8 mph - N/A   Clear
4:13 AM 66.2 °F - 64.4 °F 94% 29.82 in 10.0 mi SE 5.8 mph - N/A   Clear
4:33 AM 66.2 °F - 64.4 °F 94% 29.81 in 10.0 mi SE 6.9 mph - N/A   Clear
4:53 AM 66.2 °F - 64.4 °F 94% 29.80 in 10.0 mi SE 6.9 mph - N/A   Clear
5:13 AM 66.2 °F - 64.4 °F 94% 29.79 in 10.0 mi SE 5.8 mph - N/A   Clear
5:33 AM 66.2 °F - 64.4 °F 94% 29.79 in 10.0 mi SE 5.8 mph - N/A   Clear
5:53 AM 66.2 °F - 64.4 °F 94% 29.79 in 10.0 mi SE 5.8 mph - N/A   Clear
6:13 AM 66.2 °F - 64.4 °F 94% 29.80 in 10.0 mi SE 3.5 mph - N/A   Clear
6:33 AM 66.2 °F - 64.4 °F 94% 29.80 in 10.0 mi SE 4.6 mph - N/A   Clear
6:53 AM 68.0 °F - 66.2 °F 94% 29.80 in 10.0 mi SE 3.5 mph - N/A   Clear
7:13 AM 68.0 °F - 66.2 °F 94% 29.80 in 10.0 mi SE 5.8 mph - N/A   Clear
7:33 AM 69.8 °F - 66.2 °F 88% 29.79 in 10.0 mi SE 8.1 mph - N/A   Clear
7:53 AM 71.6 °F - 66.2 °F 83% 29.79 in 10.0 mi SSE 5.8 mph - N/A   Clear
8:13 AM 71.6 °F - 68.0 °F 88% 29.79 in 10.0 mi SE 4.6 mph - N/A   Clear
8:33 AM 71.6 °F - 69.8 °F 94% 29.79 in 10.0 mi SE 5.8 mph - N/A   Clear
8:53 AM 73.4 °F - 69.8 °F 88% 29.79 in 10.0 mi SSE 6.9 mph - N/A   Clear
9:13 AM 73.4 °F - 69.8 °F 88% 29.79 in 10.0 mi SE 9.2 mph - N/A   Clear
9:33 AM 73.4 °F - 69.8 °F 88% 29.80 in 10.0 mi SE 8.1 mph - N/A   Clear
9:53 AM 75.2 °F - 69.8 °F 83% 29.80 in 10.0 mi SE 9.2 mph - N/A   Clear
10:13 AM 75.2 °F - 69.8 °F 83% 29.80 in 10.0 mi SE 9.2 mph - N/A   Scattered Clouds
10:33 AM 77.0 °F - 71.6 °F 83% 29.80 in 10.0 mi SE 10.4 mph - N/A   Scattered Clouds
10:53 AM 78.8 °F - 71.6 °F 78% 29.80 in 10.0 mi SE 6.9 mph - N/A   Scattered Clouds
11:12 AM 78.8 °F - 71.6 °F 78% 29.79 in 10.0 mi SE 9.2 mph - N/A   Scattered Clouds
11:33 AM 78.8 °F - 71.6 °F 78% 29.79 in 10.0 mi SE 13.8 mph - N/A   Clear
11:53 AM 80.6 °F 84.6 °F 71.6 °F 74% 29.79 in 10.0 mi SE 13.8 mph 17.3 mph N/A   Clear
12:13 PM 80.6 °F 84.6 °F 71.6 °F 74% 29.77 in 10.0 mi ESE 11.5 mph - N/A   Clear
12:33 PM 82.4 °F 87.2 °F 71.6 °F 70% 29.78 in 10.0 mi ESE 13.8 mph 18.4 mph N/A   Clear
12:52 PM 82.4 °F 87.2 °F 71.6 °F 70% 29.77 in 10.0 mi SE 11.5 mph 17.3 mph N/A   Clear
1:13 PM 82.4 °F 87.2 °F 71.6 °F 70% 29.78 in 10.0 mi ESE 9.2 mph - N/A   Scattered Clouds
1:33 PM 82.4 °F 88.2 °F 73.4 °F 74% 29.76 in 7.0 mi ESE 13.8 mph - N/A   Scattered Clouds
1:52 PM 82.4 °F 88.2 °F 73.4 °F 74% 29.76 in 7.0 mi SE 11.5 mph - N/A   Scattered Clouds
2:13 PM 84.2 °F 90.9 °F 73.4 °F 70% 29.75 in 7.0 mi ESE 11.5 mph - N/A   Clear
2:33 PM 84.2 °F 90.9 °F 73.4 °F 70% 29.76 in 4.0 mi ESE 10.4 mph - N/A   Haze
2:52 PM 84.2 °F 90.9 °F 73.4 °F 70% 29.75 in 7.0 mi ESE 10.4 mph - N/A   Clear
3:13 PM 84.2 °F 90.9 °F 73.4 °F 70% 29.75 in 10.0 mi ESE 6.9 mph - N/A   Clear
3:33 PM 84.2 °F 90.9 °F 73.4 °F 70% 29.75 in 10.0 mi ESE 8.1 mph - N/A   Clear
3:52 PM 84.2 °F 90.9 °F 73.4 °F 70% 29.75 in 7.0 mi East 10.4 mph - N/A   Clear
4:13 PM 84.2 °F 90.9 °F 73.4 °F 70% 29.75 in 7.0 mi ESE 11.5 mph 16.1 mph N/A   Scattered Clouds
4:33 PM 82.4 °F 88.2 °F 73.4 °F 74% 29.75 in 10.0 mi SE 11.5 mph - N/A   Scattered Clouds
4:53 PM 84.2 °F 92.3 °F 75.2 °F 74% 29.75 in 10.0 mi SE 9.2 mph - N/A   Scattered Clouds
5:12 PM 84.2 °F 92.3 °F 75.2 °F 74% 29.74 in 10.0 mi SE 6.9 mph - N/A   Scattered Clouds
5:33 PM 84.2 °F 92.3 °F 75.2 °F 74% 29.74 in 10.0 mi SE 6.9 mph - N/A   Scattered Clouds
5:53 PM 84.2 °F 92.3 °F 75.2 °F 74% 29.74 in 10.0 mi SE 8.1 mph - N/A   Scattered Clouds
6:12 PM 84.2 °F 92.3 °F 75.2 °F 74% 29.73 in 10.0 mi ESE 6.9 mph - N/A   Scattered Clouds
6:33 PM 84.2 °F 92.3 °F 75.2 °F 74% 29.73 in 10.0 mi SE 8.1 mph - N/A   Scattered Clouds
6:53 PM 84.2 °F 92.3 °F 75.2 °F 74% 29.73 in 10.0 mi ESE 6.9 mph - N/A   Clear
7:13 PM 84.2 °F 92.3 °F 75.2 °F 74% 29.73 in 10.0 mi ESE 6.9 mph - N/A   Clear
7:33 PM 82.4 °F 89.5 °F 75.2 °F 79% 29.73 in 10.0 mi ESE 8.1 mph - N/A   Clear
7:52 PM 82.4 °F 89.5 °F 75.2 °F 79% 29.72 in 10.0 mi ESE 8.1 mph - N/A   Clear
8:13 PM 82.4 °F 89.5 °F 75.2 °F 79% 29.73 in 10.0 mi East 6.9 mph - N/A   Clear
8:33 PM 80.6 °F 86.2 °F 75.2 °F 84% 29.72 in 10.0 mi ESE 8.1 mph - N/A   Clear
8:52 PM 80.6 °F 86.2 °F 75.2 °F 84% 29.72 in 10.0 mi ESE 8.1 mph - N/A   Clear
9:13 PM 78.8 °F - 75.2 °F 89% 29.72 in 10.0 mi ESE 6.9 mph - N/A   Clear
9:33 PM 78.8 °F - 75.2 °F 89% 29.71 in 10.0 mi ESE 6.9 mph - N/A   Clear
9:52 PM 78.8 °F - 75.2 °F 89% 29.72 in 10.0 mi ESE 6.9 mph - N/A   Clear
10:13 PM 77.0 °F - 75.2 °F 94% 29.72 in 7.0 mi ESE 6.9 mph - N/A   Clear
10:33 PM 75.2 °F - 75.2 °F 100% 29.72 in 10.0 mi ESE 5.8 mph - N/A   Clear
10:52 PM 75.2 °F - 75.2 °F 100% 29.72 in 10.0 mi SE 4.6 mph - N/A   Clear
11:13 PM 77.0 °F - 75.2 °F 94% 29.73 in 10.0 mi SE 4.6 mph - N/A   Clear
11:33 PM 75.2 °F - 75.2 °F 100% 29.71 in 10.0 mi SE 4.6 mph - N/A   Clear
11:52 PM 75.2 °F - 75.2 °F 100% 29.70 in 10.0 mi SE 4.6 mph - N/A   Clear